Preview of NWS' New Version of Forecast
This preview is not operational and should not be used for support decisions.

Terminal Aerodrome Forecast (TAF)

Issued by National Weather Service (NWS)

                            
000
FTUS42 KKEY 222029 AAA
TAFEYW
TAF AMD
KEYW 222029Z 2220/2318 12008KT P6SM FEW030 BKN250
     FM231300 14007KT P6SM FEW020 BKN250=